Location: Wanzleben
(52.0609°N, 11.4408°E)
Time: 17:18:57
(UTC+00:00)

Envisat - Pass Details

Date: 26 November 2020
Orbit: 764 x 766 km, 98.1° (Epoch: 20 January)

Event Time Altitude Azimuth Distance (km) Brightness Sun altitude
Rises 18:03:59 0° 228° (SW) 3,226 7.0 -26.0°
Reaches altitude 10° 18:09:04 10° 273° (W) 2,310 6.5 -26.8°
Maximum altitude 18:09:33 10° 278° (W) 2,302 6.4 -26.8°
Drops below altitude 10° 18:10:02 10° 284° (WNW) 2,311 6.4 -26.9°
Sets 18:15:10 0° 328° (NNW) 3,247 6.7 -27.7°
